Tracking 25953 objects as of 15-Aug-2022
HD Live streaming from Space Station
objects crossing your sky now

JILIN-01 GAOFEN 3G

Track JILIN-01 GAOFEN 3G now!
10-day predictions


NORAD ID: 46459
Int'l Code: 2020-065F
Perigee: 526.8 km
Apogee: 548.6 km
Inclination: 97.4 °
Period: 95.2 minutes
Semi major axis: 6908 km
RCS: Unknown
Launch date: September 15, 2020
Source: People's Republic of China (PRC)
Launch site: Yellow Sea Launch Area, China (YSLA)
aabbcc
Your satellite tracking list
Your tracking list is empty




NASA's NSSDC Master Catalog

Two Line Element Set (TLE):
1 46459U 20065F   22227.23635538  .00003230  00000-0  19208-3 0  9992
2 46459  97.4483 278.8163 0015820  54.4967  30.9120 15.11854365105528
Source of the keplerian elements: AFSPC